Regional Weather Roundup
Issued by NWS San Angelo, TX

Home | Current Version | Previous Version | Text Only | Print | Product List | Glossary On
Versions: 1 2 3 4 5 6 7 8 9 10 11 12 13 14 15 16 17 18 19 20 21 22 23 24 25 26 27 28 29 30 31 32 33 34 35 36 37 38 39 40 41 42 43 44 45 46 47 48 49 50
000
ASUS44 KSJT 200410
RWRSJT
WEST CENTRAL TEXAS REGIONAL WEATHER ROUNDUP
NATIONAL WEATHER SERVICE SAN ANGELO TX
1100 PM CDT TUE SEP 19 2017

NOTE: "FAIR" INDICATES FEW OR NO CLOUDS BELOW 12,000 FEET WITH NO
SIGNIFICANT WEATHER AND/OR OBSTRUCTIONS TO VISIBILITY.

TXZ049-054-064>066-071>073-076>078-098-099-113-114-127-128-139-140-
154-155-168>170-200500
...LOCATIONS ACROSS WEST CENTRAL TEXAS...

CITY           SKY/WX    TMP DP  RH WIND       PRES   REMARKS
SAN ANGELO     CLEAR     79  64  60 S9        29.87R
ABILENE        PTCLDY    79  60  52 S12       29.86R
DYESS AFB      CLEAR     80  62  54 S15G24    29.83R
JUNCTION       CLEAR     72  69  90 NW3       29.90R
SWEETWATER     CLEAR     76  64  65 S20       29.89R
BROWNWOOD      PTCLDY    70  64  83 CALM      29.88R
COLEMAN        CLEAR     72  63  72 S6        29.88R
SONORA         CLEAR     77  68  73 CALM      29.95R
OZONA          FAIR      79  64  61 S10       29.94R
BRADY          NOT AVBL
$$

TEXAS PANHANDLE/OKLAHOMA PANHANDLE

CITY           SKY/WX    TMP DP  RH WIND       PRES   REMARKS
AMARILLO       CLOUDY    74  47  38 S13       29.80R
BORGER         CLOUDY    79  47  32 S16G25    29.73R
CANADIAN       CLOUDY    75  64  69 S24G30    29.70R
DALHART        CLOUDY    64  39  39 SW10      29.78R
DUMAS          CLOUDY    70  43  37 S10       29.77S
GUYMON         NOT AVBL
HEREFORD       PTCLDY    72  47  42 SW9       29.82R
PAMPA          CLEAR     75  46  35 S13       29.78R
PERRYTON       PTCLDY    74  45  34 S10       29.70R
$$

SOUTHERN PANHANDLE/SOUTH PLAINS/ROLLING PLAINS

CITY           SKY/WX    TMP DP  RH WIND       PRES   REMARKS
LUBBOCK        PTCLDY    75  51  43 S7        29.82R
SNYDER         CLEAR     77  63  61 SE20G25   29.86R
CHILDRESS      CLEAR     78  64  61 SE15G24   29.77R
SEMINOLE       CLEAR     76  43  30 SW9       29.88R
$$

PERMIAN BASIN

CITY           SKY/WX    TMP DP  RH WIND       PRES   REMARKS
MIDLAND        CLEAR     84  59  42 S18       29.87R
ODESSA         CLEAR     83  57  41 S16G24    29.89R
WINK           PTCLDY    80  45  28 W3        29.83R
$$

FAR WEST/SOUTHWEST MOUNTAINS/TRANS PECOS

CITY           SKY/WX    TMP DP  RH WIND       PRES   REMARKS
ALPINE         PTCLDY    75  52  44 S6        30.07R
DRYDEN           N/A     81  63  54 E9        29.88R
EL PASO        PTCLDY    86  46  24 W12G24    29.93R
FORT STOCKTON  CLEAR     80  57  45 S17G24    29.89R
GUADALUPE PASS CLEAR     76  45  33 SW22G28   30.03R
MARFA          NOT AVBL
PECOS          PTCLDY    83  47  28 S5        29.84R
$$

DALLAS/FORT WORTH METROPLEX

CITY           SKY/WX    TMP DP  RH WIND       PRES   REMARKS
DFW AIRPORT    CLOUDY    82  69  64 NW14      29.87R THUNDER
FTW MEACHAM    CLOUDY    80  68  66 NE14      29.86F
DAL-EXECUTIVE  CLOUDY    86  70  58 S7        29.87R
GRAND PRAIRIE  CLOUDY    85  68  56 S6        29.89R
ADDISON        CLOUDY    85  67  53 W16       29.92R
MESQUITE       CLOUDY    81  70  68 S5        29.87S
LANCASTER      CLOUDY    84  69  61 SE3       29.88R
$$

NORTH CENTRAL TEXAS

CITY           SKY/WX    TMP DP  RH WIND       PRES   REMARKS
SHRMAN/DENISON CLOUDY    81  67  63 S13G20    29.81F
GAINESVILLE    CLOUDY    80  65  60 S20       29.78F
BRIDGEPORT     CLOUDY    74  64  72 SE10      29.84F
DENTON         LGT RAIN  72  66  81 SE16      29.81F
WAXAHACHIE     CLOUDY    83  70  64 CALM      29.90R
GRANBURY       CLEAR     84  70  63 E7        29.87R
$$

WESTERN NORTH TEXAS

CITY           SKY/WX    TMP DP  RH WIND       PRES   REMARKS
WICHITA FALLS  CLOUDY    74  62  66 S15       29.77F
VERNON         CLOUDY    75  61  62 S16       29.79F
BRECKENRIDGE   CLOUDY    79  61  54 SE7       29.84F
COMANCHE       CLEAR     74  65  74 SE7       29.89R
$$

CENTRAL AND SOUTH CENTRAL TEXAS

CITY           SKY/WX    TMP DP  RH WIND       PRES   REMARKS
AUSTIN/BERGSTM CLOUDY    82  74  76 S10       29.86R
WACO           CLOUDY    84  71  65 S9        29.86S
HILLSBORO      CLOUDY    84  70  62 SE12      29.86F
TEMPLE         CLOUDY    84  72  67 SE10      29.88R
KILLEEN-GRAY   MOCLDY    83  71  67 S10       29.87R
FORT HOOD      MOCLDY    82  71  68 SE10      29.84R
GEORGETOWN     CLOUDY    83  73  72 S14       29.88R
LAGO VISTA     FAIR      82  72  71 S13G22    29.88R
SAN MARCOS     CLOUDY    80  74  81 S8        29.89R
NEW BRAUNFELS  CLOUDY    81  72  74 S10       29.87R
RANDOLPH AFB   CLOUDY    80  75  86 S8        29.89R
SAN ANTONIO    CLOUDY    81  72  74 SE10      29.89R
STINSON        MOCLDY    83  74  74 SE9       29.86R
PLEASANTON     NOT AVBL
LA GRANGE      PTCLDY    80  76  87 S6        29.86R
GIDDINGS       CLOUDY    79  72  77 S7        29.88S
$$

EAST TEXAS

CITY           SKY/WX    TMP DP  RH WIND       PRES   REMARKS
PARIS          CLOUDY    80  72  76 S9        29.87F
CLARKSVILLE    NOT AVBL
TYLER          CLOUDY    80  75  84 S8        29.90R
LONGVIEW       CLOUDY    80  75  84 S9        29.89S
PALESTINE      PTCLDY    81  76  85 SE6       29.91R
NACOGDOCHES    MOCLDY    78  75  90 SE7       29.93R
$$

TEXAS HILL COUNTRY AND EDWARDS PLATEAU

CITY           SKY/WX    TMP DP  RH WIND       PRES   REMARKS
LLANO          CLEAR     73  72  94 CALM      29.89R
HORSESHOE BAY  FAIR      82  71  67 S10G17    29.86S
KERRVILLE      CLEAR     80  72  78 S10       29.91R
FREDERICKSBRG  CLEAR     80  67  66 S7        29.90R
ROCKSPRINGS    NOT AVBL
HONDO          CLOUDY    85  73  67 SE14      29.88R
UVALDE         CLEAR     74  70  89 CALM      29.88S
DEL RIO        CLEAR     78  67  68 SE6       29.85S
$$

SOUTHEAST TEXAS

CITY           SKY/WX    TMP DP  RH WIND       PRES   REMARKS
COLLEGE STN    CLOUDY    82  74  76 S10       29.87S
CALDWELL       CLOUDY    81  73  75 S10G20    29.87S
CROCKETT       MOCLDY    77  75  94 SE5       29.93R
BRENHAM        MOCLDY    81  74  79 S8        29.89S
HUNTSVILLE     PTCLDY    81  74  79 VRB5      29.90R
CONROE         PTCLDY    79  74  84 SE7       29.91R
HOUSTON BUSH   MOCLDY    81  75  82 S6        29.90S
HOUSTON HOBBY  CLOUDY    81  76  84 SE5       29.90S
PERLAND        CLOUDY    83  76  79 SE5       29.92S
WHARTON        CLOUDY    77  74  92 SE3       29.90S
$$

THE UPPER TEXAS COAST

CITY           SKY/WX    TMP DP  RH WIND       PRES   REMARKS
ORANGE         PTCLDY    80  78  94 SE3       29.95R
PORT ARTHUR    CLEAR     78  76  93 S6        29.92R
GALVESTON      MOCLDY    84  79  85 SE16      29.91S
ANGLETON       PTCLDY    80  76  87 SE7       29.90S
BAY CITY       PTCLDY    80  76  90 SE7       29.89S FOG
$$

TEXAS COASTAL BEND, RIO GRANDE PLAINS DEEP SOUTH TEXAS

CITY           SKY/WX    TMP DP  RH WIND       PRES   REMARKS
VICTORIA       CLOUDY    80  76  87 SE12      29.85F
BEEVILLE       FAIR      81  81 100 SE10G22   29.84R
ROCKPORT       PTCLDY    82  77  84 SE16G24   29.85F
PORT ARANSAS   NOT AVBL
PORT LAVACA    PTCLDY    79  75  87 SE10      29.87S
CORPUS CHRISTI MOCLDY    82  78  88 SE16      29.85F
KINGSVILLE NAS MOCLDY    83  80  91 SE16      29.86S
COTULLA        MOCLDY    83  73  72 SE12      29.84R
LAREDO         PTCLDY    88  73  61 SE16      29.83R
BROWNSVILLE    CLEAR     81  78  91 SE7       29.90R
PORT ISABEL    PTCLDY    83  78  85 SE12      29.89R
HEBBRONVILLE   CLEAR     82  72  72 SE12G21   29.88R
MCALLEN        PTCLDY    85  76  74 SE16      29.88R
WESLACO        CLEAR     82  76  81 SE10G17   29.87S
FALFURRIAS     CLOUDY   -38  32 100 SE10      29.86S WCI -63
EDINBURG       CLEAR     84  75  74 SE12      29.87F
$$



USA.gov is the U.S. government's official web portal to all federal, state and local government web resources and services.